Bluefield, WV

6:32 PM EST on December 06, 2019 (GMT -0500)
Mercer County

Weather History for KBLF - May, 2019

Change the Weather History Date:

Saturday, May 25, 2019

  Actual Average Record
Temperature  
Mean Temperature 70 °F 65 °F  
Max Temperature 80 °F 74 °F 87 °F (1953)
Min Temperature 60 °F 55 °F 34 °F (1925)
Degree Days  
Heating Degree Days 0 3  
Month to date heating degree days 81 121  
Since 1 July heating degree days 4854 4551  
Cooling Degree Days 5 3  
Month to date cooling degree days 48 44  
Year to date cooling degree days 53 72  
Growing Degree Days 20 (Base 50)    
Moisture  
Dew Point 62 °F    
Average Humidity 78    
Maximum Humidity 97    
Minimum Humidity 58    
Precipitation  
Precipitation 0.31 in 0.15 in 1.06 in (1921)
Month to date precipitation 4.62 3.40  
Year to date precipitation 18.32 15.91  
Snow  
Snow 0.00 in - - ()
Month to date snowfall 0.0  
Since 1 July snowfall 30.8  
Snow Depth 0.00 in    
Sea Level Pressure  
Sea Level Pressure 30.14 in    
Wind  
Wind Speed 4 mph (West)    
Max Wind Speed 25 mph    
Max Gust Speed 33 mph    
Visibility 9 miles    
Events Rain , Thunderstorm    
T = Trace of Precipitation, MM = Missing Value Source: NWS Daily Summary

Daily Weather History Graph

Daily Weather History Graph

Search for Another Location

Airport or City:

Astronomy

May. 25, 2019 Rise Set
Actual Time 6:09 AM EDT 8:34 PM EDT
Civil Twilight 5:39 AM EDT 9:04 PM EDT
Nautical Twilight 5:02 AM EDT 9:41 PM EDT
Astronomical Twilight 4:21 AM EDT 10:22 PM EDT
Moon 1:36 AM EDT (5/25) 12:05 PM EDT (5/25)
Length of Visible Light 15h 25m
Length of Day
14h 25m
Waning Gibbous, 60% of the Moon is Illuminated
May 25
Waning Gibbous
May 26
Last Quarter
Jun 3
New
Jun 10
First Quarter
Jun 17
Full

Hourly Weather History & Observations

Time (EDT) Temp. Dew Point Humidity Pressure Visibility Wind Dir Wind Speed Gust Speed Precip Events Conditions
12:52 AM 66.9 °F 57.9 °F 73% 30.10 in 10.0 mi SW 4.6 mph - N/A   Clear
1:52 AM 66.9 °F 57.0 °F 70% 30.11 in 10.0 mi Calm Calm - N/A   Clear
2:52 AM 63.0 °F 57.9 °F 84% 30.11 in 10.0 mi Calm Calm - N/A   Clear
3:52 AM 61.0 °F 59.0 °F 93% 30.13 in 10.0 mi ESE 3.5 mph - N/A   Clear
4:52 AM 63.0 °F 57.9 °F 84% 30.13 in 10.0 mi Calm Calm - N/A   Clear
5:52 AM 60.1 °F 57.9 °F 93% 30.14 in 9.0 mi Calm Calm - N/A   Clear
6:52 AM 63.0 °F 60.1 °F 90% 30.16 in 10.0 mi Calm Calm - N/A   Clear
7:52 AM 66.0 °F 60.1 °F 81% 30.16 in 10.0 mi Calm Calm - N/A   Clear
8:52 AM 73.0 °F 61.0 °F 66% 30.16 in 10.0 mi Calm Calm - N/A   Clear
9:52 AM 73.9 °F 60.1 °F 62% 30.18 in 10.0 mi Variable 5.8 mph - N/A   Mostly Cloudy
10:52 AM 75.9 °F 62.1 °F 62% 30.17 in 10.0 mi WSW 6.9 mph - N/A   Partly Cloudy
11:52 AM 75.0 °F 62.1 °F 64% 30.17 in 10.0 mi West 10.4 mph - N/A   Mostly Cloudy
12:52 PM 77.0 °F 63.0 °F 62% 30.15 in 10.0 mi West 6.9 mph - N/A   Mostly Cloudy
1:52 PM 77.0 °F 62.1 °F 60% 30.12 in 10.0 mi West 5.8 mph - N/A   Mostly Cloudy
2:52 PM 72.0 °F 64.0 °F 76% 30.13 in 10.0 mi WSW 8.1 mph - 0.00 in Rain Light Rain
3:52 PM 77.0 °F 64.9 °F 66% 30.11 in 10.0 mi SW 10.4 mph - 0.00 in   Mostly Cloudy
4:52 PM 79.0 °F 63.0 °F 58% 30.10 in 10.0 mi West 8.1 mph - N/A   Partly Cloudy
5:52 PM 78.1 °F 63.0 °F 60% 30.10 in 10.0 mi West 6.9 mph - N/A   Partly Cloudy
6:52 PM 75.9 °F 63.0 °F 64% 30.10 in 10.0 mi West 4.6 mph - N/A   Partly Cloudy
7:52 PM 73.0 °F 64.0 °F 73% 30.09 in 10.0 mi Calm Calm - N/A   Mostly Cloudy
8:05 PM 73.0 °F 64.9 °F 76% 30.22 in 4.0 mi WNW 9.2 mph - 0.03 in Rain , Thunderstorm Rain
8:07 PM 72.0 °F 64.9 °F 78% 30.22 in 2.0 mi NW 15.0 mph 24.2 mph 0.08 in Rain , Thunderstorm Thunderstorms and Rain
8:09 PM 70.0 °F 64.9 °F 84% 30.24 in 0.8 mi WNW 25.3 mph 33.4 mph 0.20 in Rain , Thunderstorm Heavy Thunderstorms and Rain
8:21 PM 69.1 °F 62.1 °F 78% 30.21 in 3.0 mi Variable 3.5 mph - 0.31 in Rain , Thunderstorm Light Thunderstorms and Rain
8:33 PM 70.0 °F 63.0 °F 78% 30.21 in 10.0 mi WSW 5.8 mph - 0.31 in   Scattered Clouds
8:52 PM 68.0 °F 63.0 °F 84% 30.11 in 10.0 mi WSW 3.5 mph - 0.31 in   Clear
9:52 PM 66.9 °F 64.0 °F 90% 30.11 in 10.0 mi WSW 4.6 mph - N/A   Clear
10:52 PM 66.9 °F 63.0 °F 87% 30.12 in 10.0 mi West 8.1 mph - N/A   Clear
11:52 PM 66.0 °F 63.0 °F 90% 30.12 in 10.0 mi West 5.8 mph - N/A   Clear